Time,TemperatureF,DewpointF,PressureIn,WindDirection,WindDirectionDegrees,WindSpeedMPH,WindSpeedGustMPH,Humidity,HourlyPrecipIn,Conditions,Clouds,dailyrainin,SoftwareType,DateUTC
2013-03-12 00:02:00,54.0,51.0,0.00,NE,38,-999.0,0.0,90,-99.99,,,0.00,,2013-03-12 07:02:00,
2013-03-12 00:12:00,54.0,51.0,0.00,NE,38,-999.0,0.0,90,-99.99,,,0.00,,2013-03-12 07:12:00,
2013-03-12 00:22:00,53.0,-99.9,-100.00,NE,37,-999.0,0.0,-999,-99.99,,,-99.99,,2013-03-12 07:22:00,
2013-03-12 00:32:00,53.0,-99.9,-100.00,NE,37,-999.0,0.0,-999,-99.99,,,-99.99,,2013-03-12 07:32:00,
2013-03-12 00:42:00,53.0,-99.9,-100.00,NE,37,-999.0,0.0,-999,-99.99,,,-99.99,,2013-03-12 07:42:00,
2013-03-12 00:52:00,54.0,48.0,-100.00,NE,35,-999.0,-999.0,80,-99.99,,,-99.99,,2013-03-12 07:52:00,
2013-03-12 01:02:00,54.0,48.0,-100.00,NE,35,-999.0,-999.0,80,-99.99,,,-99.99,,2013-03-12 08:02:00,
2013-03-12 01:12:00,54.0,48.0,-100.00,NE,35,-999.0,-999.0,80,-99.99,,,-99.99,,2013-03-12 08:12:00,
2013-03-12 01:22:00,54.0,-99.9,-100.00,NNW,344,-999.0,-999.0,-999,-99.99,,,-99.99,,2013-03-12 08:22:00,
2013-03-12 01:33:00,54.0,-99.9,-100.00,NNW,344,-999.0,-999.0,-999,-99.99,,,-99.99,,2013-03-12 08:33:00,
2013-03-12 01:43:00,54.0,-99.9,-100.00,NNW,344,-999.0,-999.0,-999,-99.99,,,-99.99,,2013-03-12 08:43:00,
2013-03-12 01:51:00,53.0,50.0,-100.00,NNW,330,-999.0,0.0,88,-99.99,,,0.00,,2013-03-12 08:51:00,
2013-03-12 02:03:00,53.0,50.0,-100.00,NNW,330,-999.0,0.0,88,-99.99,,,0.00,,2013-03-12 09:03:00,
2013-03-12 02:11:00,53.0,50.0,-100.00,NNW,330,-999.0,0.0,88,-99.99,,,0.00,,2013-03-12 09:11:00,
2013-03-12 02:21:00,52.0,48.0,0.00,ESE,113,-999.0,-999.0,85,-99.99,,,0.00,,2013-03-12 09:21:00,
2013-03-12 02:22:00,50.0,47.0,-100.00,NNW,330,-999.0,0.0,88,-99.99,,,-99.99,,2013-03-12 09:22:00,
2013-03-12 02:32:00,50.0,47.0,-100.00,NNW,330,-999.0,0.0,88,-99.99,,,-99.99,,2013-03-12 09:32:00,
2013-03-12 02:42:00,50.0,47.0,-100.00,NNW,330,-999.0,0.0,88,-99.99,,,-99.99,,2013-03-12 09:42:00,
2013-03-12 02:52:00,52.0,48.0,0.00,ESE,113,-999.0,-999.0,85,-99.99,,,0.00,,2013-03-12 09:52:00,
2013-03-12 03:02:00,52.0,48.0,0.00,ESE,113,-999.0,-999.0,85,-99.99,,,0.00,,2013-03-12 10:02:00,
2013-03-12 03:12:00,52.0,48.0,0.00,ESE,113,-999.0,-999.0,85,-99.99,,,0.00,,2013-03-12 10:12:00,
2013-03-12 03:52:00,49.0,47.0,-100.00,NE,51,-999.0,0.0,92,-99.99,,,0.00,,2013-03-12 10:52:00,
2013-03-12 04:02:00,49.0,47.0,-100.00,NE,51,-999.0,0.0,92,-99.99,,,0.00,,2013-03-12 11:02:00,
2013-03-12 04:12:00,49.0,47.0,-100.00,NE,51,-999.0,0.0,92,-99.99,,,0.00,,2013-03-12 11:12:00,
2013-03-12 04:21:00,50.0,48.0,-100.00,NNE,24,-999.0,0.0,94,-99.99,,,-99.99,,2013-03-12 11:21:00,
2013-03-12 04:32:00,50.0,48.0,-100.00,NNE,24,-999.0,0.0,94,-99.99,,,-99.99,,2013-03-12 11:32:00,
2013-03-12 04:52:00,51.0,45.0,-100.00,NE,48,-999.0,0.0,81,-99.99,,,0.00,,2013-03-12 11:52:00,
2013-03-12 05:02:00,51.0,45.0,-100.00,NE,48,-999.0,0.0,81,-99.99,,,0.00,,2013-03-12 12:02:00,
2013-03-12 05:12:00,51.0,45.0,-100.00,NE,48,-999.0,0.0,81,-99.99,,,0.00,,2013-03-12 12:12:00,
2013-03-12 05:22:00,51.0,45.0,-100.00,NE,48,-999.0,-999.0,80,-99.99,,,-99.99,,2013-03-12 12:22:00,
2013-03-12 05:32:00,51.0,45.0,-100.00,NE,48,-999.0,-999.0,80,-99.99,,,-99.99,,2013-03-12 12:32:00,
2013-03-12 05:42:00,51.0,45.0,-100.00,NE,48,-999.0,-999.0,80,-99.99,,,-99.99,,2013-03-12 12:42:00,
2013-03-12 05:52:00,51.0,44.0,0.00,NNE,31,-999.0,0.0,78,-99.99,,,0.00,,2013-03-12 12:52:00,
2013-03-12 06:02:00,51.0,44.0,0.00,NNE,31,-999.0,0.0,78,-99.99,,,0.00,,2013-03-12 13:02:00,
2013-03-12 06:12:00,51.0,44.0,0.00,NNE,31,-999.0,0.0,78,-99.99,,,0.00,,2013-03-12 13:12:00,
2013-03-12 06:22:00,52.0,50.0,-100.00,NW,317,-999.0,0.0,93,-99.99,,,-99.99,,2013-03-12 13:22:00,
2013-03-12 06:52:00,52.0,50.0,-100.00,NW,308,-999.0,0.0,92,-99.99,,,0.00,,2013-03-12 13:52:00,
2013-03-12 07:21:00,51.0,49.0,-100.00,NW,316,-999.0,0.0,92,-99.99,,,-99.99,,2013-03-12 14:21:00,
2013-03-12 08:53:00,57.0,50.0,0.00,NNW,336,-999.0,0.0,78,-99.99,,,-99.99,,2013-03-12 15:53:00,
2013-03-12 09:22:00,60.0,50.0,-100.00,SSE,158,-999.0,0.0,70,-99.99,,,-99.99,,2013-03-12 16:22:00,
2013-03-12 10:53:00,66.0,52.0,-100.00,SSW,203,-999.0,0.0,60,-99.99,,,0.00,,2013-03-12 17:53:00,
2013-03-12 11:02:00,66.0,52.0,-100.00,SSW,203,-999.0,0.0,60,-99.99,,,0.00,,2013-03-12 18:02:00,
2013-03-12 11:12:00,66.0,52.0,-100.00,SSW,203,-999.0,0.0,60,-99.99,,,0.00,,2013-03-12 18:12:00,
2013-03-12 11:21:00,68.0,54.0,0.00,SW,235,-999.0,0.0,61,-99.99,,,0.00,,2013-03-12 18:21:00,
2013-03-12 11:22:00,66.0,54.0,-100.00,SW,235,-999.0,0.0,66,-99.99,,,-99.99,,2013-03-12 18:22:00,
2013-03-12 11:33:00,66.0,54.0,-100.00,SW,235,-999.0,0.0,66,-99.99,,,-99.99,,2013-03-12 18:33:00,
2013-03-12 11:42:00,66.0,54.0,-100.00,SW,235,-999.0,0.0,66,-99.99,,,-99.99,,2013-03-12 18:42:00,
2013-03-12 11:53:00,68.0,54.0,0.00,SW,235,-999.0,0.0,61,-99.99,,,0.00,,2013-03-12 18:53:00,
2013-03-12 12:03:00,68.0,54.0,0.00,SW,235,-999.0,0.0,61,-99.99,,,0.00,,2013-03-12 19:03:00,
2013-03-12 12:13:00,68.0,54.0,0.00,SW,235,-999.0,0.0,61,-99.99,,,0.00,,2013-03-12 19:13:00,
2013-03-12 13:22:00,65.0,57.0,-100.00,SW,226,-999.0,0.0,75,-99.99,,,-99.99,,2013-03-12 20:22:00,
2013-03-12 13:32:00,65.0,57.0,-100.00,SW,226,-999.0,0.0,75,-99.99,,,-99.99,,2013-03-12 20:32:00,
2013-03-12 13:51:00,65.0,55.0,-100.00,SSW,193,-999.0,0.0,70,-99.99,,,-99.99,,2013-03-12 20:51:00,
2013-03-12 14:22:00,65.0,55.0,-100.00,SSW,193,-999.0,0.0,70,-99.99,,,-99.99,,2013-03-12 21:22:00,
2013-03-12 14:32:00,65.0,55.0,-100.00,SSW,193,-999.0,0.0,70,-99.99,,,-99.99,,2013-03-12 21:32:00,
2013-03-12 14:42:00,65.0,55.0,-100.00,SSW,193,-999.0,0.0,70,-99.99,,,-99.99,,2013-03-12 21:42:00,
2013-03-12 14:51:00,65.0,56.0,-100.00,WNW,286,-999.0,0.0,73,-99.99,,,-99.99,,2013-03-12 21:51:00,
2013-03-12 15:22:00,65.0,56.0,-100.00,WNW,286,-999.0,0.0,73,-99.99,,,-99.99,,2013-03-12 22:22:00,
2013-03-12 15:32:00,65.0,56.0,-100.00,WNW,286,-999.0,0.0,73,-99.99,,,-99.99,,2013-03-12 22:32:00,
2013-03-12 15:42:00,65.0,56.0,-100.00,WNW,286,-999.0,0.0,73,-99.99,,,-99.99,,2013-03-12 22:42:00,
2013-03-12 15:51:00,63.0,55.0,-100.00,WNW,295,-999.0,0.0,75,-99.99,,,-99.99,,2013-03-12 22:51:00,
2013-03-12 16:22:00,63.0,55.0,-100.00,WNW,295,-999.0,0.0,75,-99.99,,,-99.99,,2013-03-12 23:22:00,
2013-03-12 16:34:00,63.0,55.0,-100.00,WNW,295,-999.0,0.0,75,-99.99,,,-99.99,,2013-03-12 23:34:00,
2013-03-12 16:43:00,63.0,55.0,-100.00,WNW,295,-999.0,0.0,75,-99.99,,,-99.99,,2013-03-12 23:43:00,
2013-03-12 17:22:00,64.0,55.0,-100.00,West,274,-999.0,0.0,72,-99.99,,,-99.99,,2013-03-13 00:22:00,
2013-03-12 17:33:00,64.0,55.0,-100.00,West,274,-999.0,0.0,72,-99.99,,,-99.99,,2013-03-13 00:33:00,
2013-03-12 17:42:00,64.0,55.0,-100.00,West,274,-999.0,0.0,72,-99.99,,,-99.99,,2013-03-13 00:42:00,
2013-03-12 17:52:00,64.0,56.0,0.00,WSW,241,-999.0,0.0,75,-99.99,,,-99.99,,2013-03-13 00:52:00,
2013-03-12 18:02:00,64.0,56.0,0.00,WSW,241,-999.0,0.0,75,-99.99,,,-99.99,,2013-03-13 01:02:00,
2013-03-12 18:12:00,64.0,56.0,0.00,WSW,241,-999.0,0.0,75,-99.99,,,-99.99,,2013-03-13 01:12:00,
2013-03-12 18:22:00,64.0,57.0,-100.00,South,169,-999.0,0.0,78,-99.99,,,-99.99,,2013-03-13 01:22:00,
2013-03-12 18:32:00,64.0,57.0,-100.00,South,169,-999.0,0.0,78,-99.99,,,-99.99,,2013-03-13 01:32:00,
2013-03-12 18:52:00,61.0,58.0,-100.00,West,275,-999.0,0.0,90,-99.99,,,-99.99,,2013-03-13 01:52:00,
2013-03-12 19:52:00,57.0,57.0,-100.00,SW,227,-999.0,-999.0,100,-99.99,,,-99.99,,2013-03-13 02:52:00,
2013-03-12 20:02:00,57.0,57.0,-100.00,SW,227,-999.0,-999.0,100,-99.99,,,-99.99,,2013-03-13 03:02:00,
2013-03-12 20:12:00,57.0,57.0,-100.00,SW,227,-999.0,-999.0,100,-99.99,,,-99.99,,2013-03-13 03:12:00,
2013-03-12 20:21:00,56.0,56.0,-100.00,West,262,-999.0,0.0,100,-99.99,,,-99.99,,2013-03-13 03:21:00,
2013-03-12 20:32:00,56.0,56.0,-100.00,West,262,-999.0,0.0,100,-99.99,,,-99.99,,2013-03-13 03:32:00,
2013-03-12 20:42:00,56.0,56.0,-100.00,West,262,-999.0,0.0,100,-99.99,,,-99.99,,2013-03-13 03:42:00,
2013-03-12 20:52:00,55.0,55.0,0.00,WSW,258,-999.0,-999.0,100,-99.99,,,-99.99,,2013-03-13 03:52:00,
2013-03-12 21:02:00,55.0,55.0,0.00,WSW,258,-999.0,-999.0,100,-99.99,,,-99.99,,2013-03-13 04:02:00,
2013-03-12 21:12:00,55.0,55.0,0.00,WSW,258,-999.0,-999.0,100,-99.99,,,-99.99,,2013-03-13 04:12:00,
2013-03-12 21:21:00,54.0,54.0,-100.00,ESE,104,-999.0,0.0,100,-99.99,,,0.00,,2013-03-13 04:21:00,
2013-03-12 21:23:00,55.0,-99.9,-100.00,SW,216,-999.0,0.0,-999,-99.99,,,-99.99,,2013-03-13 04:23:00,
2013-03-12 21:32:00,55.0,-99.9,-100.00,SW,216,-999.0,0.0,-999,-99.99,,,-99.99,,2013-03-13 04:32:00,
2013-03-12 21:43:00,55.0,-99.9,-100.00,SW,216,-999.0,0.0,-999,-99.99,,,-99.99,,2013-03-13 04:43:00,
2013-03-12 21:52:00,54.0,54.0,-100.00,ESE,104,-999.0,0.0,100,-99.99,,,0.00,,2013-03-13 04:52:00,
2013-03-12 22:02:00,54.0,54.0,-100.00,ESE,104,-999.0,0.0,100,-99.99,,,0.00,,2013-03-13 05:02:00,
2013-03-12 22:12:00,54.0,54.0,-100.00,ESE,104,-999.0,0.0,100,-99.99,,,0.00,,2013-03-13 05:12:00,
2013-03-12 23:22:00,53.0,53.0,-100.00,NW,321,-999.0,0.0,100,-99.99,,,-99.99,,2013-03-13 06:22:00,
2013-03-12 23:32:00,53.0,53.0,-100.00,NW,321,-999.0,0.0,100,-99.99,,,-99.99,,2013-03-13 06:32:00,
2013-03-12 23:42:00,53.0,53.0,-100.00,NW,321,-999.0,0.0,100,-99.99,,,-99.99,,2013-03-13 06:42:00,